User: anonymous   Login
Location: Newark
(35.6799°N, 139.7636°E)
Time: 00:16:27
(UTC+00:00)
Language:

S-56A Canister/Altair - Orbit

View from above orbital plane
View from above orbital plane
View from above satellite
View from above satellite

Ground track
Ground track

The orbit data is extracted from the following two-line orbital elements,

1    82U 61004B   19340.90268593 -.00000005 +00000-0 +20369-4 0  9990
2    82 038.8594 195.0506 1174823 229.4817 119.7587 12.26056432784057
Epoch (UTC): 06 December 2019 21:39:52
Eccentricity: 0.1174823
inclination: 38.8594°
perigee height: 633 km
apogee height: 2499 km
right ascension of ascending node: 195.0506°
argument of perigee: 229.4817°
revolutions per day: 12.26056432
mean anomaly at epoch: 119.7587°
orbit number at epoch: 78405

The dashed part of the orbit path shows where the satellite is in the earth's shadow,  

DLR